Tracking 17632 objects as of 1-May-2016
HD Live streaming from Space Station
objects crossing your sky now

SL-16 DEB

Track SL-16 DEB now!
10-day predictions


NORAD ID: 24300
Int'l Code: 1996-051D
Perigee: 846.9 km
Apogee: 1,138.2 km
Inclination: 71.0 °
Period: 104.8 minutes
Semi major axis: 7363 km
RCS: 0.0855 m2 (small)
Launch date: September 4, 1996
Source: Commonwealth of Independent States (former USSR) (CIS)
Launch site: TYURATAM MISSILE AND SPACE COMPLEX (TTMTR)

Note: This is SATELLITE DEBRIS
Your satellite tracking list
Your tracking list is empty





NASA's NSSDC Master Catalog

Two Line Element Set (TLE):
1 24300U 96051D   16122.83813197  .00000035  00000-0  72619-4 0  9999
2 24300  71.0294 160.9852 0197810 317.4229  91.2272 13.73948270985558
Source of the keplerian elements: AFSPC

N2YO: 497